STARLINK-5203 (54104 NORAD) Tracking and Keplerian Element Data

This shows tracking and keplerian element data for the satellite.

Feedback or suggestion? Click here.




ElementValue
Catalog54104
NameSTARLINK-5203
Epoch Orbit130
Epoch Day324.91667824
Epoch Year2022
RAAN352.9322
Inclination53.2153
Eccentricity0.0003433
Argument of Perigee5.7571
Mean Anonmoly150.4906
Mean Motion15.73168931
Decay Rate-0.00020524
L11 54104U 22136BF 22324.91667824 -.00020524 00000+0 -14229-3 0 9999
L22 54104 53.2153 352.9322 0003433 5.7571 150.4906 15.73168931 1302



Live tracking and technical data element details for STARLINK-5203 (NORAD 54104). STARLINK-5203 can be tracked NOW for your location showing map with azimuth and elevation plus other details from your city location.







IsCatalogInMostPopularTable: catalog: 54104, numindb: 1
Update: records affected: 1



GetName: 54104 STARLINK-5203

Hit Count: updated at: Mon, 28 Nov 2022 22:19:45 GMT